Regional Weather Roundup
Issued by NWS

Home | Current Version | Previous Version | Text Only | Print | Product List | Glossary Off
Versions: 1 2 3 4 5 6 7 8 9 10 11 12 13 14 15 16 17 18 19 20 21 22 23 24 25 26 27 28 29 30 31 32 33 34 35 36 37 38 39 40 41 42 43 44 45 46 47 48 49 50

000
ASUS45 KSLC 290710
RWRUT

UTAH REGIONAL WEATHER ROUNDUP
NATIONAL WEATHER SERVICE SALT LAKE CITY UT
100 AM MDT MON JUN 29 2015

UTZ001>011-023>025-290800-

NORTHERN UTAH

CITY           SKY/WX    TMP DP  RH WIND       PRES   REMARKS
BRIGHAM CITY   CLEAR     83  43  23 E17       30.01F
HILL AFB       CLEAR     81  48  31 E21G26    30.04F
LOGAN          CLEAR     76  52  43 S8        30.06R
OGDEN          CLEAR     84  46  26 CALM      30.02S
PROVO AIRPORT  CLEAR     72  52  49 S3        30.04S
SALT LAKE CITY CLEAR     82  54  37 SW6       29.99S
VERNAL         PTCLDY    82  37  20 N12       30.14R
WENDOVER       CLEAR     82  41  23 W9        30.01S
HEBER CITY     CLEAR     61  50  67 CALM      30.17S
WEST JORDAN    CLEAR     79  48  34 CALM      30.05S

$$

UTZ012>022-026-027-290800-

SOUTHERN/CENTRAL UTAH

CITY           SKY/WX    TMP DP  RH WIND       PRES   REMARKS
BLANDING       CLEAR     73  42  31 CALM      30.32S
BRYCE CANYON   CLEAR     58  46  64 W9        30.37R
CEDAR CITY     CLEAR     73  43  33 SE9       30.18R
DELTA          CLEAR     84  35  17 S8        30.05S
HANKSVILLE     PTCLDY    81  36  19 CALM      30.04F
MILFORD        CLEAR     76  43  30 S14       30.09S
MOAB/CYNLANDS  CLEAR     80  41  24 CALM      30.03R
PRICE          PTCLDY    76  37  24 N8        30.17S
ST GEORGE      SUNNY     88  46  23 SE13      29.96S
KANAB          CLEAR     68  48  49 NE3       30.20R

$$

REGIONAL REPORTS     COLORADO/ARIZONA

CITY           SKY/WX    TMP DP  RH WIND       PRES   REMARKS
CRAIG, CO      MOCLDY    72  44  36 NE13G20   30.25S
GRAND JUNCTION PTCLDY    78  43  28 SE12      30.08R
RIFLE          MOCLDY    75  44  33 SE9       30.18R
MONTROSE       MOCLDY    75  45  34 E24G30    30.21S
CORTEZ         CLEAR     76  41  28 SE13G35   30.25S
PAGE, AZ       CLEAR     84  41  21 S5        30.05S
GRAND CANYON   PTCLDY    59  47  64 CALM      30.31S
KINGMAN        PTCLDY    78  57  48 S7        30.04S
FLAGSTAFF      LGT RAIN  63  54  72 W9        30.33F

$$

REGIONAL REPORTS    NEVADA/IDAHO/WYOMING

CITY           SKY/WX    TMP DP  RH WIND       PRES   REMARKS
LAS VEGAS, NV  CLOUDY    97  45  16 S10       29.86R HX  93
ELY            MOCLDY    73  35  25 S10       30.21S
ELKO           MOCLDY    78  42  27 S3        30.08F
POCATELLO, ID  CLEAR     68  49  50 N7        30.06R
BURLEY         CLEAR     67  59  75 SW5       30.00S
EVANSTON, WY   PTCLDY    70  39  32 E14G23    30.31F
ROCK SPRINGS   PTCLDY    66  41  40 E3        30.32S
KEMMERER       PTCLDY    64  43  45 N13G18    30.38R

$$


USA.gov is the U.S. government's official web portal to all federal, state and local government web resources and services.